LM1 WBGG-WARR

Flight info

Callsign LM1
Flight time N/A
Altitude 37000
Route 002811S1092421E 032235S1115959E 005203S1143336E/N0486F380 014009N1115723E/N0484F390 020736N1145951E 045612N1150211E 022138N1173826E/N0481F400 011552N1163739E/N0484F390 003425N1172347E 012747N1182729E 011700N1191818E 003229N1193039E/N0481F400 003021S1183354E 020008S1171456E/N0485F390 004257S1182320E/N0482F400 000645S1180821E 000720S1173417E 005820S1164353E/N0482F410 000759S1173358E/N0484F400 002929N1170501E 004736N1161152E 000933N1153353E/N0482F410 004740N1161251E 002926N1170424E 000653S1173341E 000710S1180830E 004231S1182355E/N0484F400 020026S1171445E 010025S1144617E/N0482F410 024636S1151218E 013840S1161831E/N0485F400 010134S1144520E/N0483F410 024742S1151241E 034930S1154035E/N0485F400 054401S1135117E 033613S1120449E/N0483F410 021138S1133217E 022203S1140256E 025318S1141221E/N0485F400 042510S1124609E/N0485F410 025428S1141213E 031735S1145840E 040713S1152336E/N0486F400 054316S1135057E 053602S1115530E/N0484F410 050745S1121920E 043307S1121958E/N0486F400 041352S1113134E 050949S1103027E/N0484F410 DCT 070616S1121929E
Aircraft B772/H-SDE2E3FGHIJ5LORVWXY/LB1D1

Departure

Time 2026-04-17 21:58
Airport Kuching International Airport (WBGG)

Arrival

Time N/A
Airport Juanda International Airport (WARR)
Time Latitude Longitude Altitude Speed Heading
2026-04-17 21:58 1.26354 110.23314 8882 ft 289 kts 206°
2026-04-17 21:58 1.24506 110.22433 9630 ft 291 kts 206°
2026-04-17 21:59 1.22694 110.21569 10248 ft 297 kts 206°
2026-04-17 21:59 1.20759 110.20645 10456 ft 320 kts 206°
2026-04-17 21:59 1.18668 110.19645 10641 ft 345 kts 206°
2026-04-17 21:59 1.16429 110.18575 10822 ft 368 kts 206°
2026-04-17 22:00 1.14083 110.17456 11339 ft 379 kts 206°
2026-04-17 22:00 1.11672 110.16306 12009 ft 387 kts 206°
2026-04-17 22:00 1.09239 110.15146 12799 ft 391 kts 206°
2026-04-17 22:00 1.06761 110.13964 13613 ft 394 kts 206°
2026-04-17 22:01 1.04279 110.12780 14319 ft 399 kts 206°
2026-04-17 22:01 1.01751 110.11575 15037 ft 404 kts 206°
2026-04-17 22:01 0.99194 110.10354 15758 ft 409 kts 206°
2026-04-17 22:01 0.96615 110.09124 16503 ft 413 kts 206°
2026-04-17 22:02 0.94001 110.07877 17234 ft 418 kts 206°
2026-04-17 22:02 0.91362 110.06618 17974 ft 422 kts 206°
2026-04-17 22:02 0.88690 110.05343 18641 ft 427 kts 206°
2026-04-17 22:02 0.86002 110.04060 19283 ft 431 kts 205°
2026-04-17 22:03 0.83283 110.02763 19941 ft 434 kts 205°
2026-04-17 22:03 0.80542 110.01455 20623 ft 438 kts 205°
2026-04-17 22:03 0.77811 110.00152 21264 ft 441 kts 205°
2026-04-17 22:03 0.75029 109.98824 21902 ft 445 kts 205°
2026-04-17 22:04 0.72221 109.97485 22502 ft 449 kts 205°
2026-04-17 22:04 0.69388 109.96133 23059 ft 453 kts 205°
2026-04-17 22:04 0.66528 109.94769 23591 ft 457 kts 205°
2026-04-17 22:04 0.63653 109.93396 24026 ft 460 kts 205°
2026-04-17 22:05 0.60757 109.92015 24464 ft 463 kts 205°
2026-04-17 22:05 0.57838 109.90622 24883 ft 467 kts 205°
2026-04-17 22:05 0.54898 109.89219 25305 ft 470 kts 205°
2026-04-17 22:05 0.51943 109.87809 25706 ft 473 kts 205°
2026-04-17 22:06 0.48957 109.86385 26103 ft 475 kts 205°
2026-04-17 22:06 0.45998 109.84973 26485 ft 478 kts 205°
2026-04-17 22:06 0.42991 109.83538 26860 ft 481 kts 205°
2026-04-17 22:06 0.39961 109.82092 27223 ft 484 kts 205°
2026-04-17 22:07 0.36897 109.80631 27583 ft 487 kts 205°
2026-04-17 22:07 0.33840 109.79172 27916 ft 489 kts 205°
2026-04-17 22:07 0.30758 109.77701 28221 ft 492 kts 205°
2026-04-17 22:07 0.27653 109.76220 28537 ft 494 kts 205°
2026-04-17 22:08 0.24540 109.74735 28825 ft 496 kts 205°
2026-04-17 22:08 0.22473 109.73749 29021 ft 497 kts 205°
2026-04-17 22:08 0.18283 109.71750 29376 ft 500 kts 205°
2026-04-17 22:08 0.15176 109.70267 29612 ft 502 kts 205°
2026-04-17 22:09 0.12013 109.68758 29850 ft 503 kts 205°
2026-04-17 22:09 0.08853 109.67251 30144 ft 503 kts 205°
2026-04-17 22:09 0.05699 109.65746 30448 ft 501 kts 205°
2026-04-17 22:09 0.03612 109.64750 30663 ft 500 kts 205°
2026-04-17 22:10 0.00475 109.63254 30970 ft 499 kts 205°
2026-04-17 22:10 -0.02662 109.61757 31258 ft 498 kts 205°
2026-04-17 22:10 -0.05797 109.60261 31529 ft 498 kts 205°
2026-04-17 22:10 -0.08926 109.58769 31826 ft 498 kts 205°
2026-04-17 22:11 -0.12050 109.57278 32111 ft 497 kts 205°
2026-04-17 22:11 -0.15160 109.55794 32404 ft 496 kts 205°
2026-04-17 22:11 -0.18281 109.54305 32676 ft 496 kts 205°
2026-04-17 22:11 -0.21387 109.52823 32946 ft 495 kts 205°
2026-04-17 22:12 -0.24499 109.51338 33227 ft 494 kts 205°
2026-04-17 22:12 -0.27597 109.49860 33541 ft 493 kts 205°
2026-04-17 22:12 -0.30653 109.48401 33820 ft 493 kts 205°
2026-04-17 22:12 -0.33752 109.46922 34050 ft 492 kts 205°
2026-04-17 22:13 -0.36854 109.45442 34281 ft 492 kts 205°
2026-04-17 22:13 -0.39938 109.43982 34497 ft 488 kts 202°
2026-04-17 22:13 -0.43203 109.43017 34549 ft 491 kts 186°
2026-04-17 22:13 -0.46606 109.43064 34682 ft 492 kts 169°
2026-04-17 22:14 -0.49894 109.44006 34911 ft 491 kts 157°
2026-04-17 22:14 -0.52890 109.45627 35149 ft 490 kts 143°
2026-04-17 22:14 -0.55463 109.47791 35287 ft 490 kts 138°
2026-04-17 22:14 -0.58025 109.50124 35436 ft 492 kts 137°
2026-04-17 22:15 -0.60495 109.52418 35678 ft 491 kts 137°
2026-04-17 22:15 -0.62996 109.54736 35946 ft 490 kts 137°
2026-04-17 22:15 -0.65504 109.57036 36213 ft 489 kts 138°
2026-04-17 22:15 -0.68022 109.59318 36470 ft 488 kts 138°
2026-04-17 22:16 -0.70548 109.61587 36695 ft 488 kts 138°
2026-04-17 22:16 -0.73080 109.63847 36803 ft 490 kts 138°
2026-04-17 22:16 -0.75637 109.66124 36848 ft 491 kts 138°
2026-04-17 22:17 -0.80735 109.70659 36863 ft 489 kts 138°
2026-04-17 22:17 -0.85798 109.75167 36867 ft 486 kts 138°
2026-04-17 22:18 -0.90815 109.79637 36886 ft 486 kts 138°
2026-04-17 22:18 -0.95860 109.84134 36870 ft 486 kts 138°
2026-04-17 22:19 -1.00919 109.88644 36868 ft 488 kts 138°
2026-04-17 22:19 -1.05986 109.93160 36870 ft 489 kts 138°
2026-04-17 22:20 -1.11066 109.97689 36874 ft 489 kts 138°
2026-04-17 22:20 -1.16155 110.02226 36888 ft 490 kts 138°
2026-04-17 22:21 -1.21212 110.06734 36874 ft 490 kts 138°
2026-04-17 22:21 -1.26301 110.11270 36871 ft 489 kts 138°
2026-04-17 22:22 -1.31384 110.15802 36876 ft 489 kts 138°
2026-04-17 22:22 -1.36459 110.20328 36892 ft 488 kts 138°
2026-04-17 22:23 -1.41531 110.24850 36875 ft 488 kts 138°
2026-04-17 22:23 -1.46592 110.29363 36875 ft 488 kts 138°
2026-04-17 22:24 -1.51656 110.33880 36878 ft 487 kts 138°
2026-04-17 22:24 -1.56692 110.38371 36898 ft 487 kts 138°
2026-04-17 22:25 -1.61748 110.42881 36893 ft 487 kts 138°
2026-04-17 22:25 -1.66809 110.47395 36879 ft 488 kts 138°
2026-04-17 22:26 -1.71875 110.51914 36882 ft 488 kts 138°
2026-04-17 22:26 -1.76936 110.56429 36883 ft 488 kts 138°
2026-04-17 22:27 -1.82000 110.60947 36881 ft 487 kts 138°
2026-04-17 22:27 -1.87022 110.65428 36900 ft 487 kts 138°
2026-04-17 22:28 -1.92085 110.69946 36900 ft 487 kts 138°
2026-04-17 22:28 -1.97137 110.74454 36889 ft 486 kts 138°
2026-04-17 22:29 -2.02187 110.78961 36882 ft 486 kts 138°
2026-04-17 22:29 -2.07246 110.83477 36889 ft 486 kts 138°
2026-04-17 22:30 -2.12254 110.87947 36900 ft 486 kts 138°
2026-04-17 22:30 -2.17302 110.92454 36901 ft 486 kts 138°
2026-04-17 22:31 -2.22352 110.96963 36885 ft 486 kts 138°
2026-04-17 22:31 -2.27398 111.01468 36881 ft 486 kts 138°
2026-04-17 22:32 -2.32442 111.05972 36902 ft 486 kts 138°